STARLINK-35932, 66526

Orbit data source: Space-Track

STARLINK-35932, 66526 is a payload satellite owned by SpaceX/Seattle (US) in LEO that was launched on Wed, 19 Nov 2025 UTC via an FALCON 9 launch vehicle from the Air Force Eastern Test Range (AFETR). Payload-class satellites include a variety of spacecraft equipped with specific instruments for various scientific and technological missions. These include communications satellites like Starlink; space stations such as the ISS; scientific satellites like the Hubble; Earth observation satellites from companies like Planet Labs, Umbra, and HawkEye 360; GPS; miniature CubeSats for education and research; and military/defense satellites.

Loading next visibility...
Identifier
66526, 2025-265L
Orbit
LEO
Country
Flag of USUS
Related business
Manufacturer
SpaceX/Seattle
Mission
Operational Commercial Communications
Bus & Motor
STARLINK V2MO, Unknown motor
Mass
575 kg wet, ~530 kg dry
Launch date (UTC)
2025-11-19 (7 months ago)
Launch vehicle
FALCON 9
Launch site
Air Force Eastern Test Range (AFETR)
Object type
Payload
Rocket body
Debris
Shape & HBR
Box + 2 Pan, 17.7 m
Radar Cross Section
36.964 m², Large (>1 m²)

Expand to show TLE details & history
Last TLE update: 10 hours ago

TLE from 10 hours ago
0 STARLINK-35932
1 66526U 25265L   26171.41668980 -.00021386  00000-0 -76976-3 0  9994
2 66526  43.0040  57.7124 0001570 269.9264 141.9645 15.27584312  5895
Epoch: 2026-06-20T10:00Z
TLE epoch observation values (Epoch: 2026-06-20T10:00:01.998Z)
Latitude
32.58586°
Longitude
42.0376°
Altitude
484.898 km
Speed
7.627 km/s
True Right ascension
06h 42m 42s
True Declination
32° 25' 26"
Sunlit
Object was in daylight at epoch
Visualization orbit readout
Latitude
Unknown
Longitude
Unknown
Altitude
Unknown
Speed
Unknown
Apparent Right ascension
Unknown
Apparent Declination
Unknown
Sunlit
N/A
Visualization observer readout
Local Sidereal Time
07:13:07
Azimuth
Unknown
Elevation
Unknown
Doppler factor
Unknown
Orbital elements
Apogee altitude
486.058 km
Perigee altitude
483.903 km
Semi-major axis
6,863.118 km
Eccentricity
0.00016
Inclination
43.004°
RAAN
57.7124°
Arg. of periapsis
269.9264°
True anomaly
141.97558°
Mean anomaly
141.9645°
Eccentric anomaly
141.97004°
Mean motion
3.81734 °/min
Orbital period
94.31 mins
BSTAR
-0.00076976
Loading maneuver chart data...
Computing Atmospheric mass density...
Loading historical data...
Loading historical data...
Loading historical data...
Loading historical data...
Loading historical data...
Loading historical data...
Loading historical data...

Documentation

Showing up to 5 results
|